Location: Unspecified
(51.0459°N, 0.0000°E)
Time: 13:47:50
(UTC+00:00)

ISS - Pass Details

Date: 28 May 2019
Orbit: 407 x 418 km, 51.6° (Epoch: 20 June)

Event Time Altitude Azimuth Distance (km) Brightness Sun altitude
Rises 22:05:20 0° 285° (WNW) 2,359 0.7 -13.4°
Reaches altitude 10° 22:07:29 10° 279° (W) 1,496 -0.5 -13.5°
Maximum altitude 22:10:42 44° 206° (SSW) 586 -3.3 -13.7°
Enters shadow 22:12:02 28° 151° (SSE) 817 -2.9 -13.8°
